[[{"header":{"parameterUnit":"m.s-1","parameterCategory":1,"la1":30.2991,"la2":30.254,"lo1":-89.0895,"lo2":-89.0444,"dy":0.0017,"dx":0.0017,"nx":28,"ny":28,"refTime":"2025-07-06T21:00:00:Z","depth":0,"parameterNumber":2,"parameterNumberName":"U-component_of_WINDS"},"data":[0,0,0,0,0,0,0,0,0,0,0,0,0,0,0,0,0,0,0,0,0,0,0,0,0,0,0,0,0,0,0,0,0,0,0,0,0,0,0,0,0,0,0,0,0,0,0,0,0,0,0,0,0,0,0,0,0,0,-0.6547,-0.6546,0,-0.6507,-0.6507,-0.6506,-0.6433,-0.6431,-0.643,-0.6429,-0.639,-0.639,-0.6391,0,0,0,0,0,0,0,0,0,0,0,0,0,-0.6559,-0.6559,-0.6547,-0.6546,-0.6546,-0.6507,-0.6507,-0.6506,-0.6433,-0.6431,-0.643,-0.6428,-0.639,-0.639,-0.6391,0,0,0,0,0,0,0,0,0,0,0,0,0,-0.654,-0.6559,-0.6547,-0.6505,-0.65,-0.6507,-0.6507,-0.6506,-0.6434,-0.6431,-0.6429,-0.6427,-0.639,-0.639,-0.6391,-0.6436,0,0,-0.6392,-0.6392,0,0,0,0,0,0,0,0,-0.6541,-0.654,-0.6511,-0.6507,-0.6503,-0.6473,-0.6497,-0.6483,-0.6434,-0.6459,-0.6429,-0.6426,-0.6419,-0.6417,-0.6415,-0.6434,-0.6433,-0.6392,-0.6392,-0.6393,-0.6393,0,0,0,0,0,0,0,-0.6543,-0.6541,-0.6531,-0.6511,-0.6506,-0.6488,-0.6483,-0.6494,-0.6452,-0.6457,-0.6451,-0.6447,-0.6417,-0.6414,-0.6413,-0.6432,-0.6392,-0.6392,-0.6393,-0.6393,-0.6486,-0.6488,0,0,0,0,0,0,-0.655,-0.6543,-0.6532,-0.653,-0.6517,-0.6489,-0.6484,-0.6485,-0.6451,-0.6444,-0.6449,-0.6444,-0.6415,-0.6413,-0.6412,-0.6462,-0.6393,-0.6393,-0.6393,-0.6484,-0.6487,-0.6489,0,0,0,0,0,0,-0.6551,-0.655,-0.6534,-0.6535,-0.6531,-0.6491,-0.6493,-0.6485,-0.6483,-0.6446,-0.6438,-0.6455,-0.6413,-0.6411,-0.643,-0.646,-0.6393,-0.6394,-0.6481,-0.6485,-0.6488,-0.6565,0,0,0,0,0,0,-0.6551,-0.655,-0.6567,-0.6536,-0.6532,-0.6554,-0.6495,-0.6486,-0.6483,-0.6476,-0.6449,-0.6442,-0.6411,-0.643,-0.6431,-0.6459,-0.6394,-0.6479,-0.6483,-0.6487,-0.6559,-0.657,-0.6579,0,0,0,0,0,-0.6552,-0.6591,-0.6569,-0.6568,-0.6552,-0.6555,-0.6553,-0.6516,-0.6486,-0.6503,-0.6479,-0.6443,-0.6456,-0.6433,-0.6433,-0.6462,-0.6477,-0.6482,-0.6487,-0.6555,-0.6568,-0.6579,0,0,0,0,0,0,-0.6628,-0.6586,-0.6561,-0.6591,-0.6577,-0.6543,-0.6563,-0.6531,-0.6526,-0.652,-0.6474,-0.6469,-0.6494,-0.648,-0.6454,-0.6504,-0.6461,-0.6466,-0.6513,-0.6525,-0.6535,-0.6538,-0.6394,0,0,0,0,0,-0.6649,-0.6655,-0.6618,-0.6648,-0.6642,-0.6604,-0.6604,-0.6576,-0.6561,-0.6555,-0.6532,-0.6519,-0.6519,-0.6521,-0.652,-0.6556,-0.6549,-0.6576,-0.6586,-0.6595,-0.66,-0.6618,-0.6629,-0.6505,-0.6505,-0.6505,0,0,-0.6691,-0.6668,-0.6675,-0.6662,-0.6649,-0.6656,-0.66,-0.661,-0.6615,-0.6556,-0.6573,-0.6556,-0.6538,-0.6566,-0.6577,-0.6555,-0.6633,-0.6601,-0.6608,-0.6609,-0.6624,-0.6636,-0.6646,-0.6509,-0.6508,-0.6508,0,0,-0.6772,-0.6755,-0.6778,-0.6765,-0.6744,-0.6718,-0.6724,-0.6694,-0.668,-0.6696,-0.6652,-0.6657,-0.666,-0.6648,-0.6643,-0.6718,-0.6685,-0.6719,-0.6772,-0.6789,-0.6799,-0.6807,-0.6834,-0.6844,-0.6724,-0.6724,-0.6724,0,-0.6827,-0.6836,-0.6794,-0.6807,-0.6803,-0.6749,-0.6771,-0.6761,-0.6741,-0.674,-0.6714,-0.6716,-0.6699,-0.6724,-0.6742,-0.6739,-0.6744,-0.6722,-0.6801,-0.6809,-0.6816,-0.6841,-0.6851,-0.6728,-0.6728,-0.6727,-0.6727,0,-0.6905,-0.6912,-0.6933,-0.6915,-0.6912,-0.693,-0.6891,-0.6894,-0.6866,-0.6843,-0.6859,-0.6837,-0.6831,-0.6834,-0.6808,-0.6854,-0.6841,-0.6809,-0.6765,-0.6833,-0.6856,-0.6865,-0.6734,-0.6733,-0.6732,-0.6731,0,0,-0.7035,-0.6991,-0.7,-0.6991,-0.6963,-0.6968,-0.6983,-0.6975,-0.6978,-0.6966,-0.6978,-0.698,-0.695,-0.6944,-0.6915,-0.693,-0.6991,-0.6896,-0.6895,-0.6915,-0.7041,-0.7065,-0.7077,-0.6968,-0.6969,-0.6971,-0.7042,0,-0.711,-0.7133,-0.7095,-0.7128,-0.7133,-0.7081,-0.7094,-0.7078,-0.7057,-0.7058,-0.7034,-0.7037,-0.6997,-0.6992,-0.7005,-0.6981,-0.7015,-0.6975,-0.6978,-0.6979,-0.6986,-0.7089,-0.7115,-0.7184,-0.7051,-0.7052,-0.7053,0,-0.7202,-0.7193,-0.7226,-0.7195,-0.7196,-0.7208,-0.7198,-0.72,-0.7181,-0.7163,-0.7156,-0.7121,-0.7134,-0.709,-0.7107,-0.708,-0.7079,-0.7067,-0.7069,-0.7068,-0.7021,-0.7092,-0.7205,-0.7216,-0.7067,-0.7066,-0.7065,0,-0.7293,-0.729,-0.7308,-0.7302,-0.7266,-0.7276,-0.7262,-0.7241,-0.7238,-0.7229,-0.7227,-0.7219,-0.7215,-0.721,-0.7174,-0.7146,-0.7195,-0.7149,-0.7182,-0.7183,-0.7195,-0.7195,-0.731,-0.7194,-0.7193,-0.7193,-0.7193,0,-0.7382,-0.7404,-0.7349,-0.7361,-0.7384,-0.7339,-0.7363,-0.7344,-0.7325,-0.7332,-0.7286,-0.7293,-0.7245,-0.7247,-0.7219,-0.7237,-0.7235,-0.7222,-0.7214,-0.7226,-0.7228,-0.7226,-0.722,-0.7196,-0.7195,-0.7195,-0.7194,0,-0.7489,-0.7453,-0.747,-0.7435,-0.7426,-0.7445,-0.7414,-0.7423,-0.7397,-0.7407,-0.7406,-0.7366,-0.7366,-0.7329,-0.7322,-0.7303,-0.7333,-0.7316,-0.734,-0.7334,-0.7369,-0.7367,-0.7488,-0.7501,-0.7376,-0.7377,-0.7378,0,-0.7549,-0.7565,-0.753,-0.7531,-0.7519,-0.7521,-0.7518,-0.7474,-0.7473,-0.7451,-0.7463,-0.7459,-0.7453,-0.7455,-0.7426,-0.742,-0.7403,-0.7446,-0.7402,-0.7413,-0.7404,-0.7404,-0.7405,-0.7455,-0.7457,-0.7458,-0.7459,0,-0.7659,-0.7639,-0.7637,-0.7627,-0.7624,-0.7615,-0.7602,-0.7606,-0.7558,-0.7558,-0.7557,-0.7553,-0.7544,-0.7541,-0.7529,-0.7514,-0.7479,-0.7473,-0.748,-0.7493,-0.7506,-0.75,-0.7365,-0.7471,-0.747,-0.7469,-0.7468,-0.7468,-0.7744,-0.7755,-0.7732,-0.773,-0.7716,-0.7705,-0.7712,-0.7686,-0.7684,-0.7674,-0.7648,-0.7651,-0.763,-0.761,-0.7597,-0.7599,-0.7578,-0.7588,-0.7591,-0.7595,-0.7601,-0.7505,-0.7597,-0.7596,-0.7596,-0.7596,-0.7595,0,-0.7852,-0.7834,-0.7832,-0.7816,-0.7814,-0.778,-0.7764,-0.7765,-0.7768,-0.775,-0.7745,-0.7744,-0.7739,-0.7709,-0.7701,-0.7708,-0.7692,-0.7708,-0.7707,-0.7704,-0.7621,-0.7615,-0.7721,-0.7721,-0.7721,-0.7721,-0.7721,-0.7721,-0.7908,-0.7925,-0.7903,-0.7911,-0.7893,-0.7895,-0.7889,-0.7879,-0.7865,-0.7864,-0.786,-0.784,-0.7817,-0.7807,-0.7802,-0.7792,-0.7792,-0.7814,-0.7799,-0.7722,-0.771,-0.7699,-0.7693,-0.7814,-0.7814,-0.7883,-0.7883,-0.7884]},{"header":{"parameterUnit":"m.s-1","parameterCategory":1,"la1":30.2991,"la2":30.254,"lo1":-89.0895,"lo2":-89.0444,"dy":0.0017,"dx":0.0017,"nx":28,"ny":28,"refTime":"2025-07-06T21:00:00:Z","depth":0,"parameterNumber":3,"parameterNumberName":"V-component_of_WINDS"},"data":[0,0,0,0,0,0,0,0,0,0,0,0,0,0,0,0,0,0,0,0,0,0,0,0,0,0,0,0,0,0,0,0,0,0,0,0,0,0,0,0,0,0,0,0,0,0,0,0,0,0,0,0,0,0,0,0,0,0,-0.3194,-0.3195,0,-0.3285,-0.3286,-0.3287,-0.3321,-0.3321,-0.3321,-0.332,-0.3412,-0.3415,-0.3418,0,0,0,0,0,0,0,0,0,0,0,0,0,-0.3048,-0.305,-0.3194,-0.3195,-0.3196,-0.3285,-0.3286,-0.3287,-0.3321,-0.3321,-0.332,-0.332,-0.3411,-0.3415,-0.3418,0,0,0,0,0,0,0,0,0,0,0,0,0,-0.3122,-0.3051,-0.3194,-0.3224,-0.3228,-0.3285,-0.3286,-0.3288,-0.3321,-0.3321,-0.332,-0.332,-0.341,-0.3414,-0.3418,-0.3452,0,0,-0.3431,-0.3432,0,0,0,0,0,0,0,0,-0.3118,-0.3128,-0.3218,-0.3222,-0.3226,-0.3291,-0.3268,-0.3343,-0.3321,-0.3286,-0.332,-0.332,-0.3372,-0.3379,-0.3397,-0.3456,-0.346,-0.3431,-0.3434,-0.3435,-0.3436,0,0,0,0,0,0,0,-0.3113,-0.3124,-0.323,-0.322,-0.3224,-0.3232,-0.3242,-0.3283,-0.333,-0.3289,-0.3291,-0.3302,-0.3374,-0.3393,-0.34,-0.3461,-0.3431,-0.3435,-0.3437,-0.3439,-0.3551,-0.3552,0,0,0,0,0,0,-0.3103,-0.3119,-0.3227,-0.3233,-0.317,-0.3235,-0.3246,-0.3271,-0.333,-0.3338,-0.3302,-0.3303,-0.3387,-0.3395,-0.3403,-0.3446,-0.3435,-0.3439,-0.3441,-0.3551,-0.3551,-0.3552,0,0,0,0,0,0,-0.31,-0.3112,-0.3224,-0.3177,-0.3192,-0.3238,-0.3265,-0.3273,-0.3292,-0.334,-0.3348,-0.3313,-0.3387,-0.3397,-0.3439,-0.345,-0.3441,-0.3445,-0.355,-0.3551,-0.3552,-0.3532,0,0,0,0,0,0,-0.3095,-0.3111,-0.3125,-0.3177,-0.3194,-0.3259,-0.3266,-0.3275,-0.3299,-0.3301,-0.3352,-0.336,-0.3387,-0.3433,-0.3443,-0.3455,-0.3448,-0.3549,-0.355,-0.3551,-0.3532,-0.3532,-0.3532,0,0,0,0,0,-0.309,-0.3116,-0.3125,-0.3138,-0.3212,-0.3259,-0.3269,-0.33,-0.33,-0.3314,-0.3344,-0.3359,-0.3447,-0.3437,-0.3449,-0.3462,-0.3549,-0.355,-0.3551,-0.3532,-0.3532,-0.3532,0,0,0,0,0,0,-0.3063,-0.3123,-0.3134,-0.3178,-0.3213,-0.3265,-0.3284,-0.3299,-0.3335,-0.3335,-0.3371,-0.3382,-0.3421,-0.3446,-0.3434,-0.3497,-0.3499,-0.3502,-0.348,-0.3481,-0.3481,-0.3474,-0.3451,0,0,0,0,0,-0.3062,-0.3096,-0.3146,-0.318,-0.3197,-0.3237,-0.3259,-0.3279,-0.3317,-0.3332,-0.3366,-0.3402,-0.3437,-0.346,-0.3496,-0.3535,-0.3547,-0.355,-0.355,-0.355,-0.3553,-0.3575,-0.3577,-0.3556,-0.3556,-0.3556,0,0,-0.3061,-0.3098,-0.3117,-0.3175,-0.3205,-0.3239,-0.325,-0.3285,-0.331,-0.3337,-0.3379,-0.3405,-0.3447,-0.3488,-0.3507,-0.351,-0.3561,-0.3552,-0.3551,-0.3554,-0.3577,-0.3579,-0.358,-0.3557,-0.3557,-0.3556,0,0,-0.3076,-0.3107,-0.3139,-0.3168,-0.3213,-0.3239,-0.3247,-0.3296,-0.3314,-0.3356,-0.3378,-0.3407,-0.3468,-0.3497,-0.352,-0.3544,-0.3559,-0.3554,-0.3555,-0.3576,-0.3578,-0.358,-0.3588,-0.3591,-0.3557,-0.3557,-0.3557,0,-0.3069,-0.3121,-0.3153,-0.3187,-0.3211,-0.3237,-0.3269,-0.3295,-0.3349,-0.3366,-0.3367,-0.3443,-0.3473,-0.3521,-0.3527,-0.3544,-0.3553,-0.3549,-0.3575,-0.3577,-0.3579,-0.3588,-0.3591,-0.3556,-0.3556,-0.3556,-0.3556,0,-0.311,-0.3145,-0.3165,-0.3216,-0.3243,-0.3275,-0.3311,-0.3334,-0.3351,-0.3377,-0.3419,-0.3456,-0.3499,-0.3512,-0.3529,-0.3562,-0.3561,-0.3568,-0.3571,-0.358,-0.3589,-0.3592,-0.3555,-0.3555,-0.3555,-0.3556,0,0,-0.3112,-0.318,-0.3187,-0.321,-0.3261,-0.3288,-0.3321,-0.3363,-0.3382,-0.3418,-0.3446,-0.3496,-0.3503,-0.3528,-0.3549,-0.3567,-0.3583,-0.3572,-0.3574,-0.3573,-0.3621,-0.3616,-0.3619,-0.3593,-0.3594,-0.3594,-0.3617,0,-0.3134,-0.3195,-0.3224,-0.3272,-0.3304,-0.3329,-0.3357,-0.3391,-0.3415,-0.3446,-0.3473,-0.3507,-0.3514,-0.3529,-0.3548,-0.3577,-0.3594,-0.3576,-0.3619,-0.362,-0.3609,-0.3624,-0.3618,-0.3639,-0.3621,-0.3621,-0.3622,0,-0.3169,-0.3204,-0.3255,-0.3301,-0.3316,-0.3341,-0.3382,-0.3411,-0.3449,-0.3465,-0.3493,-0.3513,-0.3547,-0.3546,-0.3594,-0.3581,-0.36,-0.3617,-0.3618,-0.3624,-0.3622,-0.363,-0.3646,-0.3649,-0.3627,-0.3627,-0.3627,0,-0.3165,-0.3226,-0.3264,-0.3284,-0.3338,-0.3355,-0.3378,-0.3416,-0.3439,-0.3474,-0.3489,-0.3528,-0.3549,-0.3577,-0.3606,-0.3603,-0.3651,-0.3652,-0.3665,-0.3664,-0.3675,-0.3674,-0.3694,-0.3686,-0.3686,-0.3686,-0.3686,0,-0.3187,-0.3218,-0.3264,-0.3287,-0.3322,-0.3353,-0.3386,-0.3411,-0.3444,-0.3472,-0.3495,-0.3521,-0.3557,-0.3588,-0.361,-0.3646,-0.3655,-0.3669,-0.3675,-0.3667,-0.3665,-0.3681,-0.368,-0.3687,-0.3687,-0.3686,-0.3686,0,-0.319,-0.3222,-0.3266,-0.3313,-0.3326,-0.3349,-0.3389,-0.3413,-0.3437,-0.3473,-0.3483,-0.3522,-0.3558,-0.359,-0.3638,-0.3653,-0.369,-0.3696,-0.3677,-0.368,-0.3691,-0.369,-0.3723,-0.3729,-0.3716,-0.3716,-0.3716,0,-0.3202,-0.3226,-0.3276,-0.3297,-0.332,-0.3353,-0.3377,-0.3408,-0.3432,-0.3476,-0.3494,-0.3532,-0.3564,-0.3621,-0.3653,-0.369,-0.3698,-0.3707,-0.3704,-0.3695,-0.3698,-0.3697,-0.3699,-0.3707,-0.3707,-0.3707,-0.3707,0,-0.3221,-0.3235,-0.3269,-0.3307,-0.3335,-0.3367,-0.3399,-0.3415,-0.3452,-0.3477,-0.3515,-0.354,-0.3588,-0.3626,-0.3665,-0.3689,-0.3704,-0.3707,-0.3712,-0.3706,-0.3693,-0.37,-0.3678,-0.3707,-0.3707,-0.3707,-0.3707,-0.3707,-0.3229,-0.3251,-0.329,-0.3326,-0.3353,-0.3383,-0.3407,-0.3434,-0.3467,-0.3509,-0.3525,-0.3564,-0.36,-0.3655,-0.3678,-0.3707,-0.371,-0.3717,-0.3719,-0.372,-0.3719,-0.3688,-0.3715,-0.3715,-0.3715,-0.3715,-0.3715,0,-0.3249,-0.3274,-0.3307,-0.3352,-0.338,-0.3392,-0.3428,-0.345,-0.3484,-0.3516,-0.3548,-0.359,-0.3626,-0.366,-0.3698,-0.3715,-0.3723,-0.3724,-0.3723,-0.3728,-0.3715,-0.3707,-0.3717,-0.3717,-0.3717,-0.3717,-0.3717,-0.3717,-0.3262,-0.33,-0.3319,-0.337,-0.3395,-0.3434,-0.3453,-0.348,-0.3506,-0.3553,-0.3583,-0.3605,-0.3638,-0.3678,-0.3711,-0.372,-0.3732,-0.3731,-0.3742,-0.373,-0.3729,-0.3729,-0.3721,-0.3734,-0.3734,-0.3753,-0.3753,-0.3754]}]]